KBLU Airport (Blue Canyon - Nyack) Information

FAA: BLU - ICAO: KBLU

KBLU Airport Location

State California
County Placer
City Emigrant Gap
KBLU Airport is 1 miles south of Emigrant Gap, CA.
Latitude 39-16-29.9000N
Longitude 120-42-35.1000W
Elevation 5,283ft

KBLU Airport METARs

METAR KBLU 020052Z AUTO 00000KT 10SM CLR 05/M06 A3021 RMK AO2 SLP210 T00501056 $
Altimeter 30.21"
Temperature 5.0°C (41.0°F)
Wind 0° at 0KT
Clouds Skies are clear.
Visibility 10.0mi
Time observed: 2023-02-02T00:52:00Z

KBLU Airport Details

Status Operational
Activation May 1941
Ownership Public
Usage Public
Chart SAN FRANCISCO
ATC on-site No
Beacon schedule N/A
Beacon color clear green

KBLU Airport Contacts

Owner COUNTY OF PLACER
Owner address 3091 COUNTY CTR DR., AUBURN, CA 95603
Owner phone 530-745-7500
Manager J CHEKIE
Manager address 170 N FAIR OAKS, PASA, CA 91103
Manager phone 818-578-2922

KBLU Airport (Blue Canyon - Nyack) Radio Frequencies

KBLU (Airport) Radio Frequencies

UNICOM N/A
Common traffic advisory frequency (CTAF) 122.9